TimeCST,TemperatureF,Dew PointF,Humidity,Sea Level PressureIn,VisibilityMPH,Wind Direction,Wind SpeedMPH,Gust SpeedMPH,PrecipitationIn,Events,Conditions,WindDirDegrees,DateUTC
12:15 AM,70.0,67.1,91,29.79,10.0,SE,11.5,17.3,N/A,,Scattered Clouds,140,2012-12-19 06:15:00
12:35 AM,69.8,67.5,92,29.78,7.0,SE,10.4,-,N/A,,Scattered Clouds,140,2012-12-19 06:35:00
12:55 AM,69.8,67.5,92,29.78,7.0,SE,12.7,19.6,N/A,,Scattered Clouds,140,2012-12-19 06:55:00
1:15 AM,69.4,67.3,93,29.77,7.0,SE,12.7,18.4,N/A,,Scattered Clouds,130,2012-12-19 07:15:00
1:35 AM,69.4,67.3,93,29.76,7.0,SE,11.5,17.3,N/A,,Scattered Clouds,140,2012-12-19 07:35:00
1:55 AM,69.3,67.1,93,29.76,7.0,SE,12.7,18.4,N/A,,Scattered Clouds,140,2012-12-19 07:55:00
2:15 AM,69.3,67.5,94,29.75,7.0,SE,11.5,18.4,N/A,,Scattered Clouds,140,2012-12-19 08:15:00
2:35 AM,69.1,67.5,95,29.75,7.0,SE,11.5,-,N/A,,Mostly Cloudy,140,2012-12-19 08:35:00
2:55 AM,68.9,67.6,96,29.73,7.0,SE,10.4,-,N/A,,Scattered Clouds,130,2012-12-19 08:55:00
3:15 AM,69.1,67.8,96,29.73,7.0,SE,12.7,20.7,N/A,,Scattered Clouds,140,2012-12-19 09:15:00
3:35 AM,69.3,67.6,95,29.74,7.0,SSE,11.5,17.3,N/A,,Mostly Cloudy,150,2012-12-19 09:35:00
3:55 AM,69.1,67.8,96,29.74,7.0,SSE,6.9,-,N/A,,Overcast,150,2012-12-19 09:55:00
4:15 AM,68.9,67.5,95,29.73,7.0,SSE,8.1,-,N/A,,Scattered Clouds,150,2012-12-19 10:15:00
4:35 AM,68.7,67.3,95,29.73,7.0,SSE,8.1,-,N/A,,Scattered Clouds,150,2012-12-19 10:35:00
4:55 AM,68.7,67.3,95,29.73,7.0,SSE,6.9,-,N/A,,Scattered Clouds,150,2012-12-19 10:55:00
5:15 AM,68.9,67.3,95,29.72,7.0,SE,9.2,-,N/A,,Mostly Cloudy,140,2012-12-19 11:15:00
5:35 AM,68.9,67.3,95,29.72,7.0,SSE,9.2,-,N/A,,Mostly Cloudy,150,2012-12-19 11:35:00
5:55 AM,68.9,67.6,96,29.73,5.0,SSE,10.4,-,N/A,,Overcast,150,2012-12-19 11:55:00
6:15 AM,69.1,68.0,96,29.74,5.0,SSE,8.1,-,N/A,,Overcast,150,2012-12-19 12:15:00
6:35 AM,69.1,67.8,96,29.74,5.0,SSE,6.9,-,N/A,,Overcast,150,2012-12-19 12:35:00
6:55 AM,69.1,68.0,96,29.74,5.0,SE,11.5,16.1,N/A,,Overcast,140,2012-12-19 12:55:00
7:15 AM,69.3,68.0,96,29.74,5.0,SE,9.2,-,N/A,,Overcast,140,2012-12-19 13:15:00
7:35 AM,69.3,67.8,95,29.75,5.0,SE,10.4,16.1,N/A,,Overcast,140,2012-12-19 13:35:00
7:55 AM,69.4,67.6,94,29.75,5.0,SSE,10.4,18.4,N/A,,Overcast,150,2012-12-19 13:55:00
8:15 AM,69.8,67.3,92,29.76,5.0,South,12.7,18.4,N/A,,Overcast,170,2012-12-19 14:15:00
8:35 AM,69.8,67.1,91,29.77,5.0,SSE,11.5,19.6,N/A,,Overcast,160,2012-12-19 14:35:00
8:55 AM,70.0,66.9,90,29.78,5.0,SSE,9.2,18.4,N/A,,Overcast,150,2012-12-19 14:55:00
9:15 AM,70.7,67.1,88,29.78,5.0,SSE,13.8,17.3,N/A,,Overcast,160,2012-12-19 15:15:00
9:35 AM,71.4,66.6,85,29.77,7.0,SSE,16.1,21.9,N/A,,Overcast,160,2012-12-19 15:35:00
9:55 AM,72.1,66.4,82,29.78,7.0,SSE,12.7,23.0,N/A,,Overcast,160,2012-12-19 15:55:00
10:15 AM,73.8,66.2,77,29.78,7.0,SSE,17.3,21.9,N/A,,Overcast,160,2012-12-19 16:15:00
10:35 AM,75.2,66.2,73,29.78,7.0,SSE,10.4,16.1,N/A,,Mostly Cloudy,160,2012-12-19 16:35:00
10:55 AM,76.3,66.0,70,29.77,7.0,South,9.2,-,N/A,,Scattered Clouds,170,2012-12-19 16:55:00
11:15 AM,77.2,65.7,67,29.77,7.0,SSE,11.5,20.7,N/A,,Scattered Clouds,150,2012-12-19 17:15:00
11:35 AM,78.3,65.3,64,29.75,7.0,SE,10.4,18.4,N/A,,Clear,140,2012-12-19 17:35:00
11:55 AM,79.7,64.9,61,29.74,10.0,South,12.7,-,N/A,,Clear,170,2012-12-19 17:55:00
12:15 PM,81.3,64.9,57,29.73,10.0,SSE,9.2,-,N/A,,Clear,150,2012-12-19 18:15:00
12:35 PM,81.9,63.9,54,29.72,10.0,South,10.4,-,N/A,,Clear,180,2012-12-19 18:35:00
12:55 PM,82.2,64.2,54,29.72,10.0,SSW,5.8,-,N/A,,Clear,210,2012-12-19 18:55:00
1:15 PM,82.8,63.7,52,29.70,10.0,SSW,4.6,-,N/A,,Clear,200,2012-12-19 19:15:00
1:35 PM,83.7,62.1,48,29.69,10.0,South,6.9,-,N/A,,Clear,190,2012-12-19 19:35:00
1:55 PM,84.2,61.3,46,29.67,10.0,South,6.9,-,N/A,,Clear,180,2012-12-19 19:55:00
2:15 PM,86.2,61.3,43,29.67,10.0,South,5.8,-,N/A,,Clear,170,2012-12-19 20:15:00
2:35 PM,85.1,61.2,44,29.66,10.0,SE,5.8,-,N/A,,Clear,130,2012-12-19 20:35:00
2:55 PM,85.3,59.2,41,29.66,10.0,South,8.1,-,N/A,,Clear,180,2012-12-19 20:55:00
3:15 PM,87.1,57.9,37,29.66,10.0,South,3.5,-,N/A,,Clear,180,2012-12-19 21:15:00
3:35 PM,87.1,56.7,35,29.66,10.0,SSE,3.5,-,N/A,,Clear,150,2012-12-19 21:35:00
3:55 PM,87.1,57.4,36,29.65,10.0,SSE,8.1,-,N/A,,Clear,150,2012-12-19 21:55:00
4:15 PM,86.2,55.4,35,29.65,10.0,SSE,4.6,-,N/A,,Clear,150,2012-12-19 22:15:00
4:35 PM,85.5,57.6,39,29.66,10.0,SSW,3.5,-,N/A,,Clear,200,2012-12-19 22:35:00
4:55 PM,83.8,60.6,45,29.66,10.0,Calm,Calm,-,N/A,,Clear,0,2012-12-19 22:55:00
5:15 PM,82.9,60.3,46,29.67,10.0,Calm,Calm,-,N/A,,Clear,0,2012-12-19 23:15:00
5:35 PM,81.5,59.4,47,29.67,10.0,SSW,3.5,-,N/A,,Clear,200,2012-12-19 23:35:00
5:55 PM,79.3,59.2,50,29.66,10.0,Calm,Calm,-,N/A,,Clear,0,2012-12-19 23:55:00
6:15 PM,77.4,59.2,53,29.67,10.0,North,-9999.0,-,N/A,,Clear,0,2012-12-20 00:15:00
6:35 PM,73.4,58.6,60,29.67,10.0,Calm,Calm,-,N/A,,Clear,0,2012-12-20 00:35:00
7:35 PM,67.3,57.0,70,29.70,10.0,Calm,Calm,-,N/A,,Clear,0,2012-12-20 01:35:00
8:35 PM,64.9,56.7,74,29.73,10.0,Calm,Calm,-,N/A,,Clear,0,2012-12-20 02:35:00
9:35 PM,64.0,56.5,76,29.76,10.0,Calm,Calm,-,N/A,,Clear,0,2012-12-20 03:35:00
11:15 PM,64.4,59.5,84,29.78,7.0,SSE,4.6,-,N/A,,Clear,160,2012-12-20 05:15:00
11:35 PM,66.2,61.9,86,29.79,7.0,SE,3.5,-,N/A,,Clear,140,2012-12-20 05:35:00